Wind_Speed
43 44 45 46 47 48 49 50 51 51 50 51 52 54 55 56 57 59 60 61 62 63 65 66 67 68 69 70 70 70 69 69 70 70 71 72 73 73
44 45 46 47 48 49 51 52 53 54 53 53 55 57 58 59 61 63 64 65 66 67 68 69 70 70 71 71 70 70 70 70 71 71 71 71 71 71
44 45 47 48 49 51 52 54 55 56 56 55 57 59 61 62 64 66 68 68 69 70 70 71 71 71 71 71 71 71 71 71 71 71 70 69 68 67
45 46 48 49 50 52 53 55 56 57 58 58 59 62 64 66 68 69 69 70 71 71 71 71 70 70 71 71 71 70 70 70 69 68 67 65 64 64
46 47 49 50 52 53 54 56 57 59 61 61 63 65 67 69 70 70 71 71 72 71 70 70 70 70 70 69 69 68 67 66 64 63 61 60 59 58
47 49 50 52 53 54 56 57 59 61 63 64 66 68 69 70 71 71 71 71 70 69 69 70 69 69 67 66 64 63 61 59 57 55 54 53 51 50
48 49 51 52 54 55 57 59 61 63 65 67 68 70 70 71 71 71 70 69 68 69 68 67 67 65 63 61 59 56 54 51 50 49 48 47 45 44
48 50 51 53 55 57 59 61 63 65 67 69 70 71 70 71 71 71 70 68 67 66 65 63 63 61 58 55 52 50 47 46 45 44 42 40 38 36
49 50 52 55 56 58 60 62 64 67 69 71 71 71 71 71 71 70 69 68 66 64 62 59 57 54 50 48 45 43 42 40 39 37 35 33 32 31
49 51 54 56 57 59 61 64 66 68 70 70 70 71 71 71 70 69 67 64 62 60 59 54 50 46 44 42 41 39 37 35 33 31 30 28 28 27
51 53 55 57 59 61 63 65 66 67 68 69 70 71 70 69 69 66 63 61 58 55 53 49 44 41 39 38 37 35 32 30 29 27 26 25 24 23
52 54 56 59 61 63 65 66 67 67 68 69 69 69 67 65 63 61 59 57 54 50 47 43 39 37 34 33 32 31 29 27 25 23 22 21 20 20
53 56 58 61 63 64 65 67 68 68 68 68 67 65 62 60 58 56 55 53 50 45 41 37 34 32 30 28 28 27 25 23 22 20 19 18 18 17
55 58 60 62 63 64 66 67 67 66 66 65 63 60 57 55 53 52 50 48 44 39 36 33 30 28 27 25 24 23 22 20 18 17 16 15 15 15
57 59 61 62 63 65 65 65 65 65 64 61 58 55 52 50 48 47 45 41 37 33 30 28 26 24 23 21 20 19 18 17 16 15 14 13 13 13
58 60 61 62 63 64 64 63 63 62 59 56 53 50 48 46 44 42 39 35 31 29 27 24 22 21 20 19 18 17 16 15 14 13 12 11 11 11
59 60 61 61 63 63 62 61 59 58 55 52 49 46 44 42 40 37 34 30 28 26 24 21 19 19 18 17 16 16 15 14 13 11 11 10 10 10
59 60 60 61 61 61 59 58 56 54 52 49 45 43 41 39 36 33 30 27 25 23 21 19 18 17 16 16 16 15 14 13 12 11 10 10 9 10
59 59 60 61 60 59 57 55 53 51 49 45 42 39 37 35 32 30 27 24 22 21 19 18 17 16 16 16 15 14 13 12 11 10 9 9 9 9
59 59 60 59 58 57 55 53 51 48 45 41 39 36 34 32 29 27 24 22 20 19 18 17 16 15 15 15 14 13 12 11 10 9 9 8 8 8
58 59 59 58 56 55 53 51 48 44 41 38 36 33 31 29 26 23 21 20 19 17 17 16 15 15 15 14 13 12 11 10 9 9 8 8 8 7
58 58 57 56 55 53 51 48 44 41 38 36 33 31 28 26 23 21 20 18 17 17 16 15 15 15 14 13 12 12 11 10 9 8 7 7 7 7
57 57 56 55 53 51 48 44 40 38 36 33 30 27 25 23 21 19 18 17 16 16 16 15 15 14 13 12 12 11 11 10 8 8 7 6 6 6
Wind_Direction
301 302 303 303 304 304 305 305 306 306 306 306 305 304 304 303 303 302 301 300 298 297 296 295 294 293 292 291 290 288 287 286 285 285 284 282 281 279
301 302 303 303 304 305 305 306 306 306 306 306 305 304 304 303 303 302 301 300 299 298 297 296 294 293 292 291 290 289 288 287 287 286 284 283 281 280
302 303 303 304 304 305 305 306 306 306 307 306 305 305 304 304 304 303 302 301 300 299 298 297 295 294 293 291 290 289 288 288 287 286 284 283 282 280
302 303 303 304 305 305 305 306 306 306 307 307 306 305 305 304 304 303 303 302 301 300 299 298 297 295 294 292 291 290 290 289 287 286 285 283 282 281
302 303 304 305 305 305 306 306 306 306 307 306 306 306 305 305 305 304 303 303 302 301 300 299 298 297 296 294 293 292 291 290 289 287 285 284 283 282
303 304 304 305 305 306 306 307 307 307 307 307 307 306 306 306 305 305 305 304 303 302 301 300 299 298 297 296 296 294 293 291 290 288 287 285 284 282
304 304 305 305 306 306 307 307 307 307 307 307 307 307 307 307 306 306 306 305 304 303 302 302 301 300 299 298 297 296 294 293 292 290 288 286 284 282
304 305 306 307 307 307 307 308 308 308 308 308 308 309 308 308 307 307 307 306 305 304 303 302 302 301 300 298 297 297 296 295 294 292 289 287 285 283
306 306 307 308 308 308 308 309 309 309 309 309 309 309 309 308 308 308 307 307 307 306 305 305 303 302 300 299 299 299 298 297 297 295 292 289 287 285
307 308 308 309 309 309 309 309 310 310 309 310 310 309 309 309 309 309 308 308 308 308 307 306 304 302 301 300 300 299 299 299 298 295 293 290 288 287
308 309 310 310 310 309 310 310 311 310 310 310 310 310 310 310 309 309 310 310 310 309 308 307 305 303 302 300 300 301 301 301 299 296 293 291 289 288
310 311 311 311 311 311 311 311 311 311 311 311 311 311 311 311 311 311 311 311 311 310 309 307 306 304 303 302 302 303 304 303 300 298 295 292 292 292
311 311 311 312 312 312 312 312 312 312 312 312 312 312 312 312 312 312 313 313 313 311 310 308 307 306 305 304 303 305 306 305 303 301 298 296 296 297
313 313 313 313 313 313 313 313 313 313 314 314 314 313 313 313 314 315 315 315 314 313 311 310 309 308 307 307 306 307 308 307 305 304 302 301 302 301
314 314 314 314 314 314 314 314 314 314 315 315 315 315 315 315 316 317 318 318 317 316 315 314 313 311 310 310 309 310 310 309 307 306 306 306 306 306
315 315 315 315 315 315 315 315 315 316 317 316 316 316 316 317 318 319 320 320 320 319 319 319 317 316 314 313 312 313 312 311 309 308 308 308 308 310
316 317 317 317 317 317 317 317 317 318 318 318 318 317 317 318 319 320 321 322 321 321 321 322 321 319 318 317 316 315 315 313 312 310 308 308 309 311
318 318 318 318 318 318 318 318 319 319 319 319 319 319 319 320 320 321 322 323 323 323 323 323 323 322 321 321 319 318 317 315 314 311 308 307 310 312
319 319 319 319 319 319 319 319 320 319 320 319 319 320 321 321 322 322 322 323 324 324 324 325 325 325 324 324 324 322 319 318 316 313 311 310 311 314
320 320 320 320 320 320 320 320 320 320 320 320 320 321 322 322 322 322 323 323 324 324 324 325 326 327 327 327 327 327 325 322 320 317 315 314 315 317
321 321 321 321 321 321 321 321 320 320 320 321 321 322 322 322 322 322 323 324 325 326 326 327 327 328 329 329 330 330 329 327 326 323 320 319 320 321
322 322 322 322 322 321 321 321 321 320 321 321 321 322 322 322 322 321 322 323 325 326 327 328 328 328 329 331 332 333 332 331 329 328 326 325 326 324
322 323 323 322 322 322 322 322 322 322 322 322 322 322 323 322 322 321 322 322 324 325 327 327 328 329 330 331 332 333 333 333 332 332 332 332 331 330
Height
5694 5690 5686 5681 5676 5671 5666 5661 5657 5652 5649 5642 5635 5629 5622 5617 5611 5605 5599 5593 5587 5580 5575 5569 5563 5557 5552 5547 5542 5537 5532 5528 5524 5521 5518 5514 5511 5508
5686 5681 5677 5672 5666 5661 5655 5650 5644 5639 5635 5630 5623 5616 5609 5602 5595 5589 5582 5575 5568 5561 5555 5549 5543 5536 5530 5525 5520 5515 5510 5506 5502 5498 5494 5490 5486 5483
5677 5672 5667 5662 5656 5650 5644 5638 5632 5626 5622 5617 5609 5602 5594 5587 5579 5571 5563 5556 5548 5541 5534 5527 5521 5514 5508 5503 5497 5492 5487 5483 5478 5474 5470 5466 5463 5460
5667 5662 5657 5651 5646 5639 5633 5627 5620 5614 5608 5603 5596 5587 5579 5570 5562 5554 5545 5537 5529 5521 5513 5506 5499 5492 5486 5480 5475 5470 5465 5460 5456 5451 5448 5444 5441 5438
5658 5652 5646 5641 5634 5628 5621 5614 5608 5600 5593 5587 5581 5572 5563 5553 5545 5536 5527 5518 5509 5501 5493 5486 5479 5471 5465 5458 5453 5448 5443 5438 5434 5429 5426 5423 5420 5417
5648 5642 5636 5629 5623 5616 5609 5602 5595 5587 5579 5572 5564 5556 5546 5536 5526 5518 5510 5500 5491 5482 5474 5466 5458 5451 5444 5438 5432 5427 5422 5418 5413 5410 5406 5404 5401 5399
5637 5631 5625 5618 5611 5604 5597 5589 5581 5573 5564 5556 5547 5538 5529 5518 5509 5499 5491 5483 5474 5464 5456 5447 5439 5432 5425 5419 5413 5408 5404 5400 5396 5393 5390 5387 5385 5383
5627 5620 5614 5607 5600 5592 5584 5575 5567 5558 5549 5540 5531 5521 5511 5501 5491 5481 5472 5464 5458 5449 5439 5432 5422 5415 5409 5402 5397 5392 5389 5385 5382 5378 5375 5372 5371 5369
5616 5610 5603 5595 5587 5579 5571 5562 5552 5542 5532 5523 5513 5503 5493 5484 5474 5465 5455 5446 5438 5429 5421 5416 5407 5399 5393 5388 5383 5379 5376 5373 5369 5366 5363 5361 5359 5358
5605 5599 5591 5583 5575 5567 5559 5549 5539 5528 5517 5507 5497 5487 5476 5466 5456 5447 5438 5430 5422 5412 5404 5399 5393 5386 5381 5376 5371 5368 5365 5362 5359 5356 5354 5352 5350 5348
5594 5587 5579 5571 5563 5554 5545 5536 5526 5514 5502 5492 5481 5470 5459 5449 5439 5430 5422 5414 5407 5399 5390 5384 5379 5375 5371 5365 5361 5358 5355 5353 5350 5348 5345 5344 5342 5341
5584 5575 5567 5558 5549 5539 5530 5520 5510 5500 5489 5478 5467 5456 5445 5434 5425 5416 5407 5400 5392 5386 5379 5373 5368 5364 5362 5357 5353 5350 5347 5345 5343 5340 5338 5337 5335 5334
5572 5563 5554 5545 5535 5525 5515 5505 5494 5484 5474 5463 5452 5441 5431 5422 5412 5404 5395 5387 5380 5373 5367 5363 5359 5355 5352 5350 5346 5343 5340 5338 5336 5334 5333 5331 5330 5329
5560 5551 5541 5531 5521 5511 5500 5489 5478 5468 5458 5448 5437 5427 5418 5410 5401 5393 5384 5376 5369 5363 5358 5354 5351 5347 5345 5342 5340 5337 5335 5333 5331 5329 5328 5327 5325 5324
5547 5538 5528 5518 5507 5496 5485 5474 5464 5454 5444 5434 5424 5415 5407 5399 5391 5383 5375 5368 5361 5355 5351 5347 5344 5341 5339 5337 5335 5333 5331 5329 5327 5326 5324 5323 5322 5320
5535 5525 5515 5504 5493 5482 5471 5461 5450 5440 5430 5421 5412 5404 5396 5389 5382 5375 5368 5361 5356 5350 5346 5343 5339 5337 5334 5332 5331 5329 5327 5325 5324 5322 5321 5320 5319 5317
5522 5512 5502 5491 5480 5469 5458 5448 5438 5428 5419 5410 5402 5394 5387 5380 5374 5368 5362 5356 5351 5347 5343 5339 5336 5334 5331 5329 5327 5325 5323 5322 5320 5319 5318 5317 5316 5315
5510 5500 5489 5478 5467 5457 5446 5436 5427 5418 5409 5400 5393 5386 5379 5373 5367 5362 5357 5352 5347 5343 5340 5337 5334 5331 5329 5327 5325 5323 5321 5319 5318 5317 5315 5314 5314 5313
5497 5487 5476 5466 5455 5445 5435 5425 5417 5408 5399 5392 5385 5378 5372 5366 5361 5356 5352 5348 5344 5340 5337 5334 5332 5329 5327 5324 5322 5320 5319 5317 5315 5314 5313 5312 5311 5310
5485 5475 5465 5454 5444 5434 5424 5415 5407 5398 5391 5384 5377 5371 5366 5361 5356 5351 5348 5344 5341 5337 5335 5332 5329 5327 5324 5322 5320 5318 5316 5315 5313 5312 5311 5310 5309 5308
5474 5464 5453 5443 5433 5423 5414 5405 5397 5390 5383 5376 5370 5365 5360 5355 5351 5347 5344 5341 5338 5335 5332 5330 5327 5325 5323 5320 5318 5316 5315 5313 5312 5310 5309 5309 5308 5307
5463 5453 5443 5432 5422 5413 5404 5396 5388 5382 5375 5369 5364 5359 5354 5350 5347 5343 5340 5337 5335 5332 5330 5328 5325 5323 5321 5319 5317 5315 5313 5311 5310 5309 5308 5307 5306 5305
5453 5442 5432 5422 5413 5404 5395 5387 5380 5374 5368 5363 5358 5354 5350 5346 5343 5340 5337 5335 5332 5330 5328 5325 5323 5321 5319 5317 5315 5313 5312 5310 5309 5308 5307 5306 5305 5304